Location: Bethera
(33.2010°N, 79.7880°W)
Time: 12:09:37
(UTC-04:00)

Amateur Radio Satellites - All Passes

Search period start: 01 September 2015 11:39
Search period end: 02 September 2015 11:39
Location: Bethera, 33.2010°N, 79.7880°W

Satellite Date Start Highest point End Downlink Frequencies (MHz)
Time Altitude Azimuth
50 SAT 01 Sep 11:43:34 11:46:52 28° 96° (E) 11:50:12 437.505
HO-68 01 Sep 11:43:35 11:48:11 18° 298° (WNW) 11:52:24 435.675
Cosmos 2504 01 Sep 11:43:47 11:52:12 74° 267° (W) 12:00:00 435.465 / 435.565
HUMSAT D 01 Sep 11:49:00 11:53:15 85° 283° (WNW) 11:57:24 437.325/437.525
DX 1 01 Sep 11:52:51 11:57:08 52° 100° (E) 12:01:26 434.975-435.025
DANDE 01 Sep 11:58:55 12:06:49 75° 81° (E) 12:15:23 436.750
Oscar 11 01 Sep 12:01:36 12:04:02 14° 291° (WNW) 12:06:16 145.826/435.025
TIGRISAT 01 Sep 12:02:05 12:05:59 25° 265° (W) 12:09:50 435.000
UKube-1 01 Sep 12:04:36 12:08:55 66° 101° (E) 12:13:13 .
ESTCUBE 1 01 Sep 12:05:54 12:09:57 33° 97° (E) 12:14:02 437.505/2401.250
PHONESAT 2.4 01 Sep 12:07:41 12:10:51 36° 213° (SSW) 12:13:59 2401.200-2431.200
PCSat 01 Sep 12:09:31 12:14:58 85° 248° (WSW) 12:20:23 145.827
CUBEBUG 1 01 Sep 12:16:08 12:20:10 35° 98° (E) 12:24:15 437.445
AISAT 01 Sep 12:16:56 12:21:23 65° 100° (E) 12:25:51 437.250
ANTELSAT 01 Sep 12:20:35 12:23:31 16° 268° (W) 12:26:16 437.575/2403.000
SO-50 01 Sep 12:33:00 12:34:11 11° 252° (WSW) 12:35:01 436.795
AUBIESAT-1 01 Sep 12:33:17 12:35:04 12° 265° (W) 12:36:31 437.475
POLYITAN 1 01 Sep 12:37:03 12:40:37 25° 265° (W) 12:44:06 437.675
DUCHIFAT 1 01 Sep 12:39:25 12:42:56 25° 265° (W) 12:46:23 145.980
POPSAT HIP 1 01 Sep 12:39:31 12:43:00 24° 265° (W) 12:46:25 437.405
BUGSAT 1 01 Sep 12:44:16 12:47:59 34° 263° (W) 12:51:43 437.445
VELOX 1 01 Sep 12:45:02 12:49:27 60° 284° (WNW) 12:53:51 145.980
QB50P2 01 Sep 12:57:55 13:00:20 14° 268° (W) 13:02:33 145.880/145.840
NANOSAT C BR1 01 Sep 12:58:21 13:00:51 15° 268° (W) 13:03:10 145.865
CUSAT 1 01 Sep 13:11:28 13:17:50 25° 272° (W) 13:23:56 437.405
TISAT 1 01 Sep 13:11:47 13:15:11 23° 95° (E) 13:18:39 437.305
50 SAT 01 Sep 13:18:49 13:21:11 15° 290° (WNW) 13:23:23 437.505
JUGNU 01 Sep 13:19:32 13:23:25 18° 171° (S) 13:27:20 437.505
DX 1 01 Sep 13:31:23 13:32:58 11° 293° (WNW) 13:34:18 434.975-435.025
ESTCUBE 1 01 Sep 13:43:27 13:46:36 18° 290° (WNW) 13:49:36 437.505/2401.250
DANDE 01 Sep 13:43:43 13:49:32 21° 272° (W) 13:55:10 436.750
SPROUT 01 Sep 13:45:11 13:49:30 68° 284° (WNW) 13:53:47 437.525
CUBEBUG 1 01 Sep 13:53:21 13:56:16 17° 290° (WNW) 13:59:01 437.445
Oscar 19 01 Sep 13:55:20 14:00:27 71° 75° (ENE) 14:05:38 437.125/150
JAS-2 01 Sep 14:03:04 14:07:43 18° 63° (ENE) 14:12:50 435.910
BEESAT 01 Sep 14:17:31 14:20:58 20° 94° (E) 14:24:34 436.000
GONETS M04 01 Sep 14:17:51 14:26:21 52° 78° (ENE) 14:34:56
AO-7 01 Sep 14:22:59 14:25:19 12° 54° (NE) 14:28:18 29.400- 29.500
SRMSAT 01 Sep 14:31:10 14:34:22 15° 167° (SSE) 14:37:38 437.500
Gurwin Techsat 1B 01 Sep 14:41:24 14:46:35 58° 75° (ENE) 14:51:49 435.225
SWISSCUBE 01 Sep 14:42:44 14:47:15 43° 99° (E) 14:51:47 437.505
Cosmos 2499 01 Sep 14:45:10 14:50:19 18° 65° (ENE) 14:55:46 435.465 / 435.565
BEESAT 3 01 Sep 14:46:02 14:49:50 41° 114° (ESE) 14:53:41 437.485
TISAT 1 01 Sep 14:47:26 14:50:51 23° 289° (WNW) 14:54:09 437.305
ITAMSAT 1 01 Sep 14:55:38 15:00:45 66° 74° (ENE) 15:05:53 435.822/435.867
BEESAT 2 01 Sep 14:59:03 15:02:54 42° 114° (ESE) 15:06:49 435.950
JUGNU 01 Sep 15:07:24 15:11:50 22° 180° (S) 15:16:15 437.505
KKS-1 01 Sep 15:19:03 15:21:05 13° 92° (E) 15:23:21 437.445
ITUPSAT 1 01 Sep 15:21:25 15:26:11 77° 284° (WNW) 15:30:56 437.325
HORYU 2 01 Sep 15:25:12 15:27:06 13° 68° (ENE) 15:29:14 437.375
RS-15 01 Sep 15:33:36 15:43:11 39° 108° (ESE) 15:53:16 29.354- 29.394
ISS 01 Sep 15:34:57 15:37:28 20° 34° (NE) 15:39:59 145.825
Oscar 19 01 Sep 15:39:26 15:40:24 10° 271° (W) 15:40:56 437.125/150
AIST 2 01 Sep 15:40:40 15:43:53 22° 111° (ESE) 15:47:14 435.215
JAS-2 01 Sep 15:44:18 15:51:53 84° 257° (WSW) 15:59:49 435.910
BEESAT 01 Sep 15:54:38 15:58:53 32° 288° (WNW) 16:03:03 436.000
AO-7 01 Sep 16:08:37 16:16:51 67° 70° (ENE) 16:25:07 29.400- 29.500
GONETS M04 01 Sep 16:15:33 16:22:49 29° 274° (W) 16:29:49
SRMSAT 01 Sep 16:18:33 16:22:55 21° 177° (S) 16:27:17 437.500
SWISSCUBE 01 Sep 16:21:50 16:24:47 16° 292° (WNW) 16:27:33 437.505
Gurwin Techsat 1B 01 Sep 16:24:17 16:27:01 14° 269° (W) 16:29:25 435.225
BEESAT 3 01 Sep 16:25:32 16:27:59 15° 310° (NW) 16:30:18 437.485
STARS 01 Sep 16:33:04 16:37:27 58° 100° (E) 16:41:49 437.465
Cosmos 2499 01 Sep 16:36:05 16:44:41 78° 266° (W) 16:52:35 435.465 / 435.565
BEESAT 2 01 Sep 16:38:44 16:41:10 15° 310° (NW) 16:43:28 435.950
ITAMSAT 1 01 Sep 16:39:04 16:40:47 11° 270° (W) 16:42:06 435.822/435.867
KKS-1 01 Sep 16:53:42 16:57:59 44° 286° (WNW) 17:02:13 437.445
JUGNU 01 Sep 16:56:27 17:00:14 17° 190° (S) 17:03:56 437.505
HORYU 2 01 Sep 16:59:00 17:03:21 49° 260° (W) 17:07:44 437.375
ISS 01 Sep 17:11:01 17:13:54 30° 229° (SW) 17:16:47 145.825
MOZHAYETS 4 01 Sep 17:11:25 17:15:34 34° 97° (E) 17:19:43
AIST 2 01 Sep 17:18:40 17:22:20 27° 305° (NW) 17:25:58 435.215
CUTE-I 01 Sep 17:28:58 17:30:16 11° 65° (ENE) 17:31:57 437.470
JAS-2 01 Sep 17:34:32 17:38:05 13° 275° (W) 17:41:00 435.910
RS-15 01 Sep 17:44:45 17:55:20 51° 307° (NW) 18:06:13 29.354- 29.394
AO-7 01 Sep 18:04:00 18:10:18 22° 267° (W) 18:16:10 29.400- 29.500
SRMSAT 01 Sep 18:07:17 18:11:29 20° 187° (S) 18:15:39 437.500
STARS 01 Sep 18:12:16 18:13:27 11° 293° (WNW) 18:14:21 437.465
O/OREOS (USA 219) 01 Sep 18:13:44 18:15:48 13° 100° (E) 18:18:08 437.305
Cubesat XI-IV 01 Sep 18:20:16 18:25:07 38° 72° (ENE) 18:30:03 437.490
Cosmos 2499 01 Sep 18:34:38 18:36:31 10° 281° (W) 18:37:35 435.465 / 435.565
MOZHAYETS 4 01 Sep 18:49:25 18:52:33 18° 290° (WNW) 18:55:31
CUTE-I 01 Sep 19:04:28 19:09:47 77° 257° (WSW) 19:15:07 437.470
CUBESAT XI-V 01 Sep 19:07:08 19:11:41 53° 100° (E) 19:16:14 437.345
STRAND 1 01 Sep 19:18:22 19:21:23 16° 92° (E) 19:24:39 437.568
AIST 1 01 Sep 19:30:04 19:34:04 36° 79° (E) 19:38:07
BRITE-PL 01 Sep 19:31:23 19:34:55 26° 71° (ENE) 19:38:46 437.365/2234.400
O/OREOS (USA 219) 01 Sep 19:50:33 19:54:52 43° 293° (WNW) 19:59:14 437.305
GOMX 1 01 Sep 19:55:33 19:59:18 28° 71° (ENE) 20:03:22 467.674
SRMSAT 01 Sep 19:57:46 20:00:01 12° 195° (SSW) 20:02:08 437.500
Cubesat XI-IV 01 Sep 20:01:18 20:05:22 21° 266° (W) 20:09:16 437.490
DOVE 4 01 Sep 20:05:10 20:08:32 21° 69° (ENE) 20:12:12 437.250
RS-15 01 Sep 20:05:34 20:11:35 15° 337° (NNW) 20:17:14 29.354- 29.394
HO-68 01 Sep 20:18:05 20:24:28 38° 68° (ENE) 20:30:59 435.675
Cosmos 2491 01 Sep 20:28:10 20:36:36 52° 78° (ENE) 20:45:08 435.465 / 435.565
CUTE 1.7 + AOD 2 01 Sep 20:30:18 20:33:47 25° 72° (ENE) 20:37:21 437.475
YUBILEINY 01 Sep 20:31:31 20:38:09 26° 85° (E) 20:45:09 435.215
CINEMA 3 01 Sep 20:43:39 20:47:18 24° 70° (ENE) 20:51:11 145.822/145.860
CANX-2 01 Sep 20:43:52 20:47:54 42° 74° (ENE) 20:51:58 2200.000
CUBESAT XI-V 01 Sep 20:46:36 20:48:43 13° 292° (WNW) 20:50:35 437.345
PRISM 01 Sep 20:46:39 20:50:45 70° 284° (WNW) 20:54:50 437.425
STRAND 1 01 Sep 20:56:00 21:00:53 46° 287° (WNW) 21:05:43 437.568
SEEDS 01 Sep 21:03:32 21:07:38 50° 76° (ENE) 21:11:47 437.485
AIST 1 01 Sep 21:09:07 21:11:26 14° 272° (W) 21:13:31
BRITE-PL 01 Sep 21:10:07 21:13:29 22° 267° (W) 21:16:56 437.365/2234.400
Oscar 11 01 Sep 21:15:36 21:18:35 19° 71° (ENE) 21:21:42 145.826/435.025
COMPASS 1 01 Sep 21:23:45 21:27:57 69° 76° (ENE) 21:32:08 437.405
AAUSAT CUBESAT 2 01 Sep 21:33:05 21:37:16 75° 78° (ENE) 21:41:28 437.432
GOMX 1 01 Sep 21:33:58 21:37:29 22° 268° (W) 21:41:03 467.674
DOVE 4 01 Sep 21:42:03 21:46:06 31° 265° (W) 21:50:20 437.250
DELFI C3 01 Sep 21:50:52 21:54:21 29° 73° (ENE) 21:57:53 145.870
ZACube-1 01 Sep 21:59:26 22:03:38 39° 74° (ENE) 22:07:56 437.345
CUBEBUG 2 01 Sep 22:03:15 22:07:50 80° 79° (ENE) 22:12:35 437.445
FUNcube-1 01 Sep 22:04:17 22:08:33 43° 74° (ENE) 22:12:55 145.935
HO-68 01 Sep 22:05:44 22:12:12 35° 263° (W) 22:18:35 435.675
CUTE 1.7 + AOD 2 01 Sep 22:06:20 22:09:41 21° 266° (W) 22:12:53 437.475
UWE-3 01 Sep 22:08:11 22:12:43 69° 77° (ENE) 22:17:22 435.000/436.395/437.385
CINEMA 3 01 Sep 22:20:18 22:24:21 29° 265° (W) 22:28:30 145.822/145.860
Cosmos 2504 01 Sep 22:20:26 22:24:08 15° 81° (E) 22:28:34 435.465 / 435.565
CANX-2 01 Sep 22:22:01 22:24:03 13° 269° (W) 22:25:50 2200.000
Cosmos 2491 01 Sep 22:25:52 22:33:06 29° 274° (W) 22:40:03 435.465 / 435.565
YUBILEINY 01 Sep 22:25:54 22:34:30 57° 281° (W) 22:43:08 435.215
RS-15 01 Sep 22:27:52 22:31:20 12° 14° (NNE) 22:35:14 29.354- 29.394
HUMSAT D 01 Sep 22:36:17 22:40:15 38° 74° (ENE) 22:44:17 437.325/437.525
ANTELSAT 01 Sep 22:40:52 22:42:13 11° 90° (E) 22:43:52 437.575/2403.000
SEEDS 01 Sep 22:43:08 22:43:47 10° 270° (W) 22:44:06 437.485
DX 1 01 Sep 22:44:44 22:48:20 26° 71° (ENE) 22:52:00 434.975-435.025
Oscar 11 01 Sep 22:50:43 22:54:35 30° 264° (W) 22:58:23 145.826/435.025
UKube-1 01 Sep 22:55:28 22:59:15 31° 72° (ENE) 23:03:06 .
ESTCUBE 1 01 Sep 23:02:15 23:05:21 19° 70° (ENE) 23:08:36 437.505/2401.250
CUBEBUG 1 01 Sep 23:09:10 23:11:59 18° 70° (ENE) 23:14:58 437.445
AISAT 01 Sep 23:10:41 23:14:37 34° 72° (ENE) 23:18:38 437.250
QB50P1 01 Sep 23:25:51 23:27:30 12° 91° (E) 23:29:26 145.935-145.965
DELFI C3 01 Sep 23:26:48 23:29:28 16° 267° (W) 23:31:58 145.870
UNISAT 6 01 Sep 23:29:19 23:33:40 45° 99° (E) 23:37:55 437.425
ZACube-1 01 Sep 23:37:23 23:40:11 15° 268° (W) 23:42:48 437.345
VELOX 1 01 Sep 23:38:06 23:42:28 70° 77° (ENE) 23:46:52 145.980
FUNcube-1 01 Sep 23:42:38 23:45:07 14° 269° (W) 23:47:23 145.935
50 SAT 01 Sep 23:56:18 00:00:09 51° 260° (W) 00:04:02 437.505
TIGRISAT 01 Sep 23:57:17 00:01:51 85° 283° (WNW) 00:06:16 435.000
TISAT 1 02 Sep 00:02:18 00:03:06 11° 68° (ENE) 00:04:10 437.305
Cosmos 2504 02 Sep 00:07:15 00:15:18 87° 277° (W) 00:23:53 435.465 / 435.565
HUMSAT D 02 Sep 00:13:40 00:16:09 14° 268° (W) 00:18:26 437.325/437.525
ANTELSAT 02 Sep 00:15:00 00:19:24 49° 285° (WNW) 00:23:39 437.575/2403.000
AUBIESAT-1 02 Sep 00:15:14 00:19:02 88° 290° (WNW) 00:22:33 437.475
DX 1 02 Sep 00:21:15 00:24:34 21° 265° (W) 00:27:47 434.975-435.025
M-CUBED/EXP-1 PRIME 02 Sep 00:21:44 00:25:31 56° 289° (WNW) 00:28:59 437.505
POLYITAN 1 02 Sep 00:25:40 00:29:59 73° 101° (ESE) 00:34:14 437.675
DUCHIFAT 1 02 Sep 00:27:15 00:31:33 71° 102° (ESE) 00:35:47 145.980
POPSAT HIP 1 02 Sep 00:27:48 00:32:07 75° 101° (E) 00:36:23 437.405
BUGSAT 1 02 Sep 00:30:05 00:34:10 44° 99° (E) 00:38:15 437.445
CUSAT 1 02 Sep 00:30:57 00:34:33 71° 96° (E) 00:39:25 437.405
UKube-1 02 Sep 00:32:32 00:35:27 17° 266° (W) 00:38:14 .
SPROUT 02 Sep 00:34:52 00:39:00 51° 75° (ENE) 00:43:13 437.525
ESTCUBE 1 02 Sep 00:38:01 00:42:01 31° 263° (W) 00:45:59 437.505/2401.250
RS-15 02 Sep 00:38:38 00:49:03 36° 46° (NE) 01:00:02 29.354- 29.394
CUBEBUG 1 02 Sep 00:44:16 00:48:08 31° 263° (W) 00:51:59 437.445
QB50P2 02 Sep 00:45:08 00:49:23 63° 284° (WNW) 00:53:36 145.880/145.840
NANOSAT C BR1 02 Sep 00:45:13 00:49:29 66° 284° (WNW) 00:53:42 145.865
BEESAT 3 02 Sep 00:45:43 00:49:44 85° 244° (WSW) 00:53:41 437.485
AISAT 02 Sep 00:48:22 00:51:18 17° 267° (W) 00:54:04 437.250
SO-50 02 Sep 00:59:11 01:03:49 59° 116° (ESE) 01:08:38 436.795
BEESAT 2 02 Sep 00:59:28 01:03:31 82° 243° (WSW) 01:07:30 435.950
QB50P1 02 Sep 00:59:32 01:03:37 43° 286° (WNW) 01:07:39 145.935-145.965
PCSat 02 Sep 01:04:59 01:09:03 23° 107° (ESE) 01:13:17 145.827
UNISAT 6 02 Sep 01:07:42 01:10:03 14° 292° (WNW) 01:12:09 437.425
DANDE 02 Sep 01:07:43 01:10:57 69° 280° (W) 01:15:14 436.750
BEESAT 02 Sep 01:20:52 01:23:33 16° 68° (ENE) 01:26:26 436.000
TISAT 1 02 Sep 01:34:20 01:38:26 52° 260° (W) 01:42:34 437.305
AIST 2 02 Sep 01:43:35 01:47:40 52° 59° (ENE) 01:51:39 435.215
SWISSCUBE 02 Sep 01:45:23 01:49:32 31° 72° (ENE) 01:53:45 437.505
Cosmos 2504 02 Sep 02:04:35 02:09:00 14° 296° (WNW) 02:12:53 435.465 / 435.565
VERMONT LUNAR 02 Sep 02:06:53 02:09:02 18° 145° (SE) 02:11:14 437.305
BUGSAT 1 02 Sep 02:07:16 02:09:16 13° 291° (WNW) 02:11:03 437.445
Oscar 19 02 Sep 02:11:31 02:16:13 35° 97° (E) 02:20:58 437.125/150
SPROUT 02 Sep 02:14:52 02:15:27 10° 270° (W) 02:15:44 437.525
ITUPSAT 1 02 Sep 02:23:49 02:28:35 76° 76° (ENE) 02:33:21 437.325
SO-50 02 Sep 02:41:51 02:44:50 16° 313° (NW) 02:47:41 436.795
PCSat 02 Sep 02:47:11 02:52:15 39° 301° (WNW) 02:57:18 145.827
RS-15 02 Sep 02:50:37 03:02:27 67° 246° (WSW) 03:14:30 29.354- 29.394
BEESAT 02 Sep 02:56:29 03:01:04 45° 261° (W) 03:05:37 436.000
Gurwin Techsat 1B 02 Sep 03:02:13 03:06:57 33° 97° (E) 03:11:43 435.225
JAS-2 02 Sep 03:02:19 03:06:04 16° 87° (E) 03:09:55 435.910
ITAMSAT 1 02 Sep 03:13:04 03:17:41 33° 97° (E) 03:22:22 435.822/435.867
GONETS M04 02 Sep 03:13:08 03:21:41 69° 93° (E) 03:30:20
Cosmos 2499 02 Sep 03:17:29 03:21:43 16° 81° (E) 03:26:39 435.465 / 435.565
SWISSCUBE 02 Sep 03:23:46 03:27:26 21° 266° (W) 03:30:58 437.505
STARS 02 Sep 03:26:01 03:29:50 30° 72° (ENE) 03:33:43 437.465
VERMONT LUNAR 02 Sep 03:42:19 03:45:17 57° 337° (NNW) 03:48:14 437.305
KKS-1 02 Sep 03:47:08 03:51:36 84° 259° (W) 03:56:06 437.445
Oscar 19 02 Sep 03:51:19 03:55:24 23° 291° (WNW) 03:59:19 437.125/150
MOZHAYETS 4 02 Sep 04:09:49 04:13:12 21° 71° (ENE) 04:16:43
AO-7 02 Sep 04:15:56 04:22:38 28° 96° (E) 04:29:34 29.400- 29.500
O/OREOS (USA 219) 02 Sep 04:26:53 04:29:20 15° 58° (ENE) 04:31:59 437.305
Gurwin Techsat 1B 02 Sep 04:42:27 04:46:47 25° 291° (WNW) 04:51:00 435.225
JAS-2 02 Sep 04:45:13 04:51:57 62° 287° (WNW) 04:57:50 435.910
PHONESAT 2.4 02 Sep 04:49:18 04:52:28 36° 148° (SSE) 04:55:38 2401.200-2431.200
ITAMSAT 1 02 Sep 04:52:52 04:57:03 24° 291° (WNW) 05:01:05 435.822/435.867
HORYU 2 02 Sep 04:54:23 04:58:36 42° 99° (E) 05:02:49 437.375
STARS 02 Sep 05:03:05 05:06:18 19° 266° (W) 05:09:24 437.465
Cosmos 2499 02 Sep 05:05:27 05:13:50 86° 276° (W) 05:22:44 435.465 / 435.565
RS-15 02 Sep 05:10:24 05:13:30 11° 260° (W) 05:15:02 29.354- 29.394
GONETS M04 02 Sep 05:12:58 05:19:24 21° 292° (WNW) 05:25:24
VERMONT LUNAR 02 Sep 05:19:42 05:22:03 21° 353° (N) 05:24:23 437.305
MOZHAYETS 4 02 Sep 05:46:11 05:50:16 30° 264° (W) 05:54:17
O/OREOS (USA 219) 02 Sep 06:04:41 06:09:05 45° 255° (WSW) 06:13:26 437.305
CUBESAT XI-V 02 Sep 06:06:38 06:10:39 31° 73° (ENE) 06:14:44 437.345
AO-7 02 Sep 06:07:46 06:15:48 54° 292° (WNW) 06:23:44 29.400- 29.500
PHONESAT 2.4 02 Sep 06:27:04 06:30:19 41° 342° (NNW) 06:33:34 2401.200-2431.200
STRAND 1 02 Sep 06:30:43 06:33:39 16° 67° (ENE) 06:36:49 437.568
HORYU 2 02 Sep 06:32:24 06:34:54 14° 292° (WNW) 06:37:12 437.375
Cubesat XI-IV 02 Sep 06:42:20 06:46:17 22° 94° (E) 06:50:25 437.490
VERMONT LUNAR 02 Sep 06:56:35 06:59:01 23° 10° (N) 07:01:29 437.305
Cosmos 2499 02 Sep 07:03:52 07:08:34 15° 297° (WNW) 07:12:42 435.465 / 435.565
CUTE-I 02 Sep 07:25:53 07:31:08 61° 100° (E) 07:36:25 437.470
PRISM 02 Sep 07:32:21 07:36:15 45° 75° (ENE) 07:40:10 437.425
BRITE-PL 02 Sep 07:40:18 07:43:33 16° 91° (E) 07:47:07 437.365/2234.400
CUBESAT XI-V 02 Sep 07:44:46 07:48:09 19° 267° (W) 07:51:24 437.345
AIST 1 02 Sep 07:55:29 07:58:59 26° 91° (E) 08:02:34
GOMX 1 02 Sep 08:02:16 08:05:07 15° 90° (E) 08:08:17 467.674
PHONESAT 2.4 02 Sep 08:05:55 08:08:42 23° 358° (N) 08:11:29 2401.200-2431.200
STRAND 1 02 Sep 08:07:34 08:12:30 49° 260° (W) 08:17:27 437.568
ISS 02 Sep 08:10:26 08:13:37 56° 134° (SE) 08:16:49 145.825
Cubesat XI-IV 02 Sep 08:21:37 08:26:31 38° 288° (WNW) 08:31:22 437.490
VERMONT LUNAR 02 Sep 08:32:44 08:35:42 84° 26° (NNE) 08:38:40 437.305
YUBILEINY 02 Sep 08:41:11 08:49:53 61° 80° (E) 08:58:32 435.215
SEEDS 02 Sep 08:54:21 08:55:31 11° 90° (E) 08:56:57 437.485
CUTE-I 02 Sep 09:07:52 09:10:46 14° 294° (WNW) 09:13:23 437.470
PRISM 02 Sep 09:11:00 09:11:58 10° 269° (W) 09:12:39 437.425
COMPASS 1 02 Sep 09:12:43 09:15:00 15° 92° (E) 09:17:28 437.405
BRITE-PL 02 Sep 09:16:53 09:22:23 58° 285° (WNW) 09:27:57 437.365/2234.400
AAUSAT CUBESAT 2 02 Sep 09:21:25 09:23:51 16° 93° (E) 09:26:28 437.432
Cosmos 2491 02 Sep 09:23:33 09:32:09 68° 93° (E) 09:40:47 435.465 / 435.565
AIST 1 02 Sep 09:33:37 09:36:39 18° 285° (WNW) 09:39:34
SO-50 02 Sep 09:35:36 09:39:07 20° 49° (NE) 09:42:42 436.795
HO-68 02 Sep 09:37:06 09:44:10 58° 101° (ESE) 09:51:14 435.675
GOMX 1 02 Sep 09:38:14 09:43:39 59° 285° (WNW) 09:49:00 467.674
PHONESAT 2.4 02 Sep 09:43:59 09:47:08 34° 16° (NNE) 09:50:16 2401.200-2431.200
DOVE 4 02 Sep 09:44:22 09:49:43 83° 284° (WNW) 09:54:56 437.250
ISS 02 Sep 09:48:26 09:50:18 14° 330° (NNW) 09:52:06 145.825
CUTE 1.7 + AOD 2 02 Sep 09:54:30 09:58:45 90° 291° (WNW) 10:02:56 437.475
ZACube-1 02 Sep 09:55:38 09:55:57 10° 89° (E) 09:56:36 437.345
FUNcube-1 02 Sep 09:59:26 10:00:39 11° 89° (E) 10:02:10 145.935
CUBEBUG 2 02 Sep 09:59:33 10:03:12 23° 94° (E) 10:06:51 437.445
Cosmos 2504 02 Sep 10:00:33 10:06:51 24° 69° (ENE) 10:13:11 435.465 / 435.565
UWE-3 02 Sep 10:03:32 10:06:44 19° 93° (E) 10:09:59 435.000/436.395/437.385
CANX-2 02 Sep 10:08:53 10:13:00 51° 284° (WNW) 10:17:04 2200.000
DANDE 02 Sep 10:09:21 10:12:17 13° 64° (ENE) 10:16:01 436.750
VERMONT LUNAR 02 Sep 10:10:35 10:11:49 12° 218° (SW) 10:12:59 437.305
CINEMA 3 02 Sep 10:18:44 10:23:44 84° 284° (WNW) 10:28:32 145.822/145.860
UNISAT 6 02 Sep 10:24:11 10:28:00 26° 71° (ENE) 10:31:56 437.425
SEEDS 02 Sep 10:27:36 10:31:35 43° 285° (WNW) 10:35:32 437.485
YUBILEINY 02 Sep 10:39:24 10:46:09 24° 275° (W) 10:52:28 435.215
Oscar 11 02 Sep 10:41:36 10:45:54 66° 101° (E) 10:50:09 145.826/435.025
COMPASS 1 02 Sep 10:47:03 10:50:47 33° 286° (WNW) 10:54:28 437.405
TIGRISAT 02 Sep 10:51:18 10:55:48 50° 75° (ENE) 11:00:22 435.000
AAUSAT CUBESAT 2 02 Sep 10:55:52 10:59:33 31° 287° (WNW) 11:03:09 437.432
AUBIESAT-1 02 Sep 10:57:11 11:01:51 61° 71° (ENE) 11:06:29 437.475
M-CUBED/EXP-1 PRIME 02 Sep 11:03:57 11:08:45 86° 73° (ENE) 11:13:32 437.505
DELFI C3 02 Sep 11:08:06 11:12:06 90° 67° (ENE) 11:16:05 145.870
ANTELSAT 02 Sep 11:08:54 11:13:34 84° 77° (ENE) 11:18:18 437.575/2403.000
CUSAT 1 02 Sep 11:09:20 11:17:10 54° 77° (ENE) 11:25:05 437.405
POLYITAN 1 02 Sep 11:14:38 11:18:22 31° 73° (ENE) 11:22:10 437.675
SO-50 02 Sep 11:15:15 11:19:56 44° 246° (WSW) 11:24:25 436.795
DUCHIFAT 1 02 Sep 11:15:37 11:19:15 29° 73° (ENE) 11:22:58 145.980
POPSAT HIP 1 02 Sep 11:16:33 11:20:17 31° 73° (ENE) 11:24:06 437.405
BUGSAT 1 02 Sep 11:17:04 11:19:44 18° 70° (ENE) 11:22:33 437.445
JUGNU 02 Sep 11:19:07 11:19:59 10° 163° (SSE) 11:21:01 437.505
PHONESAT 2.4 02 Sep 11:21:46 11:25:05 52° 211° (SSW) 11:28:24 2401.200-2431.200
Cosmos 2491 02 Sep 11:23:26 11:29:52 21° 292° (WNW) 11:35:53 435.465 / 435.565
HO-68 02 Sep 11:25:56 11:31:28 24° 296° (WNW) 11:36:44 435.675
ZACube-1 02 Sep 11:28:22 11:32:45 54° 284° (WNW) 11:36:58 437.345
